This is the latest recevied weather packets stored in our database for station/object KB3HLL. If no packets are shown the sender has not sent any weather packets the latest 10 day(s).
| Time | Temp. | Humidity | Pressure | Rain* | Wind** | Luminosity | Snow |
|---|---|---|---|---|---|---|---|
| 1778008877 | 23.33° C | 47% | 1009.8 hPa | 0 mm | - | 245 W/m² | - |
| 1778008586 | 23.89° C | 46% | 1009.8 hPa | 0 mm | - | 303 W/m² | - |
| 1778008277 | 23.33° C | 46% | 1009.8 hPa | 0 mm | - | 1006 W/m² | - |
| 1778007980 | 23.33° C | 47% | 1009.8 hPa | 0 mm | - | 918 W/m² | - |
| 1778007679 | 22.78° C | 47% | 1009.5 hPa | 0 mm | - | 931 W/m² | - |
| 1778007381 | 22.78° C | 48% | 1009.5 hPa | 0 mm | - | 477 W/m² | - |
| 1778007080 | 22.78° C | 49% | 1009.8 hPa | 0 mm | - | 836 W/m² | - |
| 1778006780 | 22.78° C | 48% | 1009.8 hPa | 0 mm | - | 225 W/m² | - |
| 1778006481 | 22.78° C | 50% | 1009.9 hPa | 0 mm | - | 233 W/m² | - |
| 1778006181 | 22.78° C | 50% | 1009.9 hPa | 0 mm | - | 294 W/m² | - |
| 1778005880 | 22.78° C | 51% | 1010 hPa | 0 mm | - | 476 W/m² | - |
| 1778005580 | 22.22° C | 51% | 1010 hPa | 0 mm | - | 342 W/m² | - |
| 1778005278 | 22.22° C | 53% | 1010.1 hPa | 0 mm | - | 397 W/m² | - |
| 1778004980 | 22.22° C | 53% | 1010 hPa | 0 mm | - | 293 W/m² | - |
| 1778004683 | 22.78° C | 53% | 1010.2 hPa | 0 mm | - | 314 W/m² | - |
| 1778004381 | 22.78° C | 54% | 1010.3 hPa | 0 mm | - | 283 W/m² | - |
| 1778004080 | 22.78° C | 54% | 1010.3 hPa | 0 mm | - | 941 W/m² | - |
| 1778003781 | 23.33° C | 53% | 1010.1 hPa | 0 mm | - | 1060 W/m² | - |
| 1778003197 | 22.78° C | 53% | 1010.3 hPa | 0 mm | - | 729 W/m² | - |
| 1778002880 | 22.78° C | 54% | 1010.4 hPa | 0 mm | - | 968 W/m² | - |
| 1778002579 | 22.78° C | 54% | 1010.5 hPa | 0 mm | - | 1070 W/m² | - |
| 1778002279 | 22.78° C | 54% | 1010.7 hPa | 0 mm | - | 1119 W/m² | - |
| 1778001980 | 22.78° C | 54% | 1010.5 hPa | 0 mm | - | 902 W/m² | - |
| 1778001680 | 22.78° C | 55% | 1010.5 hPa | 0 mm | - | 569 W/m² | - |
| 1778001380 | 23.33° C | 54% | 1010.6 hPa | 0 mm | - | 718 W/m² | - |
* Rain latest hour (hover to see other rain measurements)
** Current wind speed in m/s (hover to see current wind gust speed)